Voltar ao catálogo

INTELSAT 33E DEB

AtivoGEO
NORAD 64409·DEBRIS· XX

Lançado Aug 24, 2016 de Guiana Space Centre

Loading…

TLE

AtualizadoSource: Space-Track

Época: Sep 13, 2026, 15:38 UTC

1 64409U 16053AP  26256.65149264  .00000080  00000-0  00000-0 0  9994
2 64409   1.7484  78.3384 0054397  83.1456 278.2988  0.99468454  6747

Acompanhe INTELSAT 33E DEB em tempo real com AllMySat

Download on the App Store